Time,TemperatureF,DewpointF,PressureIn,WindDirection,WindDirectionDegrees,WindSpeedMPH,WindSpeedGustMPH,Humidity,HourlyPrecipIn,Conditions,Clouds,dailyrainin,SoftwareType,DateUTC
2013-04-24 00:02:00,31.0,21.0,-100.00,NNW,335,8.0,9.0,67,-99.99,,,0.00,,2013-04-24 06:02:00,
2013-04-24 00:11:00,31.0,21.0,-100.00,NNW,335,8.0,9.0,67,-99.99,,,0.00,,2013-04-24 06:11:00,
2013-04-24 00:21:00,31.0,21.0,-100.00,NNW,335,8.0,9.0,67,-99.99,,,0.00,,2013-04-24 06:21:00,
2013-04-24 00:52:00,31.0,21.0,-100.00,North,0,6.0,7.0,64,-99.99,,,0.00,,2013-04-24 06:52:00,
2013-04-24 01:02:00,31.0,21.0,-100.00,North,0,6.0,7.0,64,-99.99,,,0.00,,2013-04-24 07:02:00,
2013-04-24 01:11:00,31.0,21.0,-100.00,North,0,6.0,7.0,64,-99.99,,,0.00,,2013-04-24 07:11:00,
2013-04-24 01:21:00,31.0,21.0,-100.00,North,0,6.0,7.0,64,-99.99,,,0.00,,2013-04-24 07:21:00,
2013-04-24 01:52:00,31.0,21.0,-100.00,North,-999,0.0,0.0,66,-99.99,,,0.00,,2013-04-24 07:52:00,
2013-04-24 02:01:00,31.0,21.0,-100.00,North,-999,0.0,0.0,66,-99.99,,,0.00,,2013-04-24 08:01:00,
2013-04-24 02:11:00,31.0,21.0,-100.00,North,-999,0.0,0.0,66,-99.99,,,0.00,,2013-04-24 08:11:00,
2013-04-24 02:21:00,31.0,21.0,-100.00,North,-999,0.0,0.0,66,-99.99,,,0.00,,2013-04-24 08:21:00,
2013-04-24 02:52:00,29.0,21.0,-100.00,NE,55,2.0,2.0,72,-99.99,,,0.00,,2013-04-24 08:52:00,
2013-04-24 03:01:00,29.0,21.0,-100.00,NE,55,2.0,2.0,72,-99.99,,,0.00,,2013-04-24 09:01:00,
2013-04-24 03:11:00,29.0,21.0,-100.00,NE,55,2.0,2.0,72,-99.99,,,0.00,,2013-04-24 09:11:00,
2013-04-24 03:21:00,29.0,21.0,-100.00,NE,55,2.0,2.0,72,-99.99,,,0.00,,2013-04-24 09:21:00,
2013-04-24 03:53:00,28.0,21.0,-100.00,NE,50,1.0,1.0,76,-99.99,,,0.00,,2013-04-24 09:53:00,
2013-04-24 04:02:00,28.0,21.0,-100.00,NE,50,1.0,1.0,76,-99.99,,,0.00,,2013-04-24 10:02:00,
2013-04-24 04:12:00,28.0,21.0,-100.00,NE,50,1.0,1.0,76,-99.99,,,0.00,,2013-04-24 10:12:00,
2013-04-24 04:22:00,28.0,21.0,-100.00,NE,50,1.0,1.0,76,-99.99,,,0.00,,2013-04-24 10:22:00,
2013-04-24 04:53:00,29.0,25.0,-100.00,NE,50,4.0,5.0,84,-99.99,,,0.00,,2013-04-24 10:53:00,
2013-04-24 05:02:00,29.0,25.0,-100.00,NE,50,4.0,5.0,84,-99.99,,,0.00,,2013-04-24 11:02:00,
2013-04-24 05:11:00,29.0,25.0,-100.00,NE,50,4.0,5.0,84,-99.99,,,0.00,,2013-04-24 11:11:00,
2013-04-24 05:21:00,29.0,25.0,-100.00,NE,50,4.0,5.0,84,-99.99,,,0.00,,2013-04-24 11:21:00,
2013-04-24 05:22:00,30.0,26.0,-100.00,NE,40,3.0,3.0,87,-99.99,,,0.00,,2013-04-24 11:22:00,
2013-04-24 05:52:00,30.0,26.0,-100.00,NE,40,3.0,3.0,87,-99.99,,,0.00,,2013-04-24 11:52:00,
2013-04-24 06:02:00,30.0,26.0,-100.00,NE,40,3.0,3.0,87,-99.99,,,0.00,,2013-04-24 12:02:00,
2013-04-24 06:11:00,30.0,26.0,-100.00,NE,40,3.0,3.0,87,-99.99,,,0.00,,2013-04-24 12:11:00,
2013-04-24 06:52:00,28.0,25.0,-100.00,SW,225,9.0,9.0,89,-99.99,,,0.00,,2013-04-24 12:52:00,
2013-04-24 07:01:00,28.0,25.0,-100.00,SW,225,9.0,9.0,89,-99.99,,,0.00,,2013-04-24 13:01:00,
2013-04-24 07:12:00,28.0,25.0,-100.00,SW,225,9.0,9.0,89,-99.99,,,0.00,,2013-04-24 13:12:00,
2013-04-24 07:22:00,28.0,25.0,-100.00,SW,225,9.0,9.0,89,-99.99,,,0.00,,2013-04-24 13:22:00,
2013-04-24 08:11:00,28.0,24.0,-100.00,SW,230,9.0,10.0,85,-99.99,,,0.00,,2013-04-24 14:11:00,
2013-04-24 08:21:00,28.0,24.0,-100.00,SW,230,9.0,10.0,85,-99.99,,,0.00,,2013-04-24 14:21:00,
2013-04-24 08:52:00,35.0,26.0,-100.00,SE,145,11.0,12.0,70,-99.99,,,0.00,,2013-04-24 14:52:00,
2013-04-24 09:01:00,35.0,26.0,-100.00,SE,145,11.0,12.0,70,-99.99,,,0.00,,2013-04-24 15:01:00,
2013-04-24 09:11:00,35.0,26.0,-100.00,SE,145,11.0,12.0,70,-99.99,,,0.00,,2013-04-24 15:11:00,
2013-04-24 09:21:00,35.0,26.0,-100.00,SE,145,11.0,12.0,70,-99.99,,,0.00,,2013-04-24 15:21:00,
2013-04-24 09:23:00,39.0,26.0,-100.00,SSE,160,14.0,16.0,59,-99.99,,,0.00,,2013-04-24 15:23:00,
2013-04-24 09:53:00,39.0,26.0,-100.00,SSE,160,14.0,16.0,59,-99.99,,,0.00,,2013-04-24 15:53:00,
2013-04-24 10:03:00,39.0,26.0,-100.00,SSE,160,14.0,16.0,59,-99.99,,,0.00,,2013-04-24 16:03:00,
2013-04-24 10:12:00,39.0,26.0,-100.00,SSE,160,14.0,16.0,59,-99.99,,,0.00,,2013-04-24 16:12:00,
2013-04-24 10:52:00,42.0,23.0,-100.00,SSW,195,8.0,10.0,45,-99.99,,,-99.99,,2013-04-24 16:52:00,
2013-04-24 11:02:00,42.0,23.0,-100.00,SSW,195,8.0,10.0,45,-99.99,,,-99.99,,2013-04-24 17:02:00,
2013-04-24 11:12:00,42.0,23.0,-100.00,SSW,195,8.0,10.0,45,-99.99,,,-99.99,,2013-04-24 17:12:00,
2013-04-24 11:22:00,42.0,23.0,-100.00,SSW,195,8.0,10.0,45,-99.99,,,-99.99,,2013-04-24 17:22:00,
2013-04-24 11:52:00,46.0,20.0,-100.00,SW,230,14.0,17.0,36,-99.99,,,0.00,,2013-04-24 17:52:00,
2013-04-24 12:02:00,46.0,20.0,-100.00,SW,230,14.0,17.0,36,-99.99,,,0.00,,2013-04-24 18:02:00,
2013-04-24 12:12:00,46.0,20.0,-100.00,SW,230,14.0,17.0,36,-99.99,,,0.00,,2013-04-24 18:12:00,
2013-04-24 12:21:00,46.0,20.0,-100.00,SW,230,14.0,17.0,36,-99.99,,,0.00,,2013-04-24 18:21:00,
2013-04-24 12:52:00,49.0,19.0,-100.00,WSW,255,16.0,18.0,30,-99.99,,,0.00,,2013-04-24 18:52:00,
2013-04-24 13:01:00,49.0,19.0,-100.00,WSW,255,16.0,18.0,30,-99.99,,,0.00,,2013-04-24 19:01:00,
2013-04-24 13:11:00,49.0,19.0,-100.00,WSW,255,16.0,18.0,30,-99.99,,,0.00,,2013-04-24 19:11:00,
2013-04-24 13:21:00,49.0,19.0,-100.00,WSW,255,16.0,18.0,30,-99.99,,,0.00,,2013-04-24 19:21:00,
2013-04-24 13:52:00,50.0,19.0,-100.00,West,280,15.0,17.0,29,-99.99,,,0.00,,2013-04-24 19:52:00,
2013-04-24 14:01:00,50.0,19.0,-100.00,West,280,15.0,17.0,29,-99.99,,,0.00,,2013-04-24 20:01:00,
2013-04-24 14:11:00,50.0,19.0,-100.00,West,280,15.0,17.0,29,-99.99,,,0.00,,2013-04-24 20:11:00,
2013-04-24 14:21:00,50.0,19.0,-100.00,West,280,15.0,17.0,29,-99.99,,,0.00,,2013-04-24 20:21:00,
2013-04-24 14:52:00,52.0,19.0,-100.00,WSW,250,16.0,19.0,27,-99.99,,,0.00,,2013-04-24 20:52:00,
2013-04-24 15:02:00,52.0,19.0,-100.00,WSW,250,16.0,19.0,27,-99.99,,,0.00,,2013-04-24 21:02:00,
2013-04-24 15:11:00,52.0,19.0,-100.00,WSW,250,16.0,19.0,27,-99.99,,,0.00,,2013-04-24 21:11:00,
2013-04-24 15:21:00,52.0,19.0,-100.00,WSW,250,16.0,19.0,27,-99.99,,,0.00,,2013-04-24 21:21:00,
2013-04-24 15:52:00,54.0,19.0,-100.00,WSW,240,16.0,21.0,26,-99.99,,,-99.99,,2013-04-24 21:52:00,
2013-04-24 16:03:00,54.0,19.0,-100.00,WSW,240,16.0,21.0,26,-99.99,,,-99.99,,2013-04-24 22:03:00,
2013-04-24 16:12:00,54.0,19.0,-100.00,WSW,240,16.0,21.0,26,-99.99,,,-99.99,,2013-04-24 22:12:00,
2013-04-24 16:22:00,54.0,19.0,-100.00,WSW,240,16.0,21.0,26,-99.99,,,-99.99,,2013-04-24 22:22:00,
2013-04-24 16:52:00,53.0,17.0,-100.00,West,260,22.0,25.0,24,-99.99,,,0.00,,2013-04-24 22:52:00,
2013-04-24 17:02:00,53.0,17.0,-100.00,West,260,22.0,25.0,24,-99.99,,,0.00,,2013-04-24 23:02:00,
2013-04-24 17:12:00,53.0,17.0,-100.00,West,260,22.0,25.0,24,-99.99,,,0.00,,2013-04-24 23:12:00,
2013-04-24 17:21:00,53.0,17.0,-100.00,West,260,22.0,25.0,24,-99.99,,,0.00,,2013-04-24 23:21:00,
2013-04-24 18:52:00,51.0,16.0,-100.00,WSW,255,11.0,12.0,25,-99.99,,,0.00,,2013-04-25 00:52:00,
2013-04-24 19:01:00,51.0,16.0,-100.00,WSW,255,11.0,12.0,25,-99.99,,,0.00,,2013-04-25 01:01:00,
2013-04-24 19:11:00,51.0,16.0,-100.00,WSW,255,11.0,12.0,25,-99.99,,,0.00,,2013-04-25 01:11:00,
2013-04-24 19:22:00,51.0,16.0,-100.00,WSW,255,11.0,12.0,25,-99.99,,,0.00,,2013-04-25 01:22:00,
2013-04-24 19:52:00,49.0,18.0,-100.00,West,270,11.0,12.0,29,-99.99,,,0.00,,2013-04-25 01:52:00,
2013-04-24 20:02:00,49.0,18.0,-100.00,West,270,11.0,12.0,29,-99.99,,,0.00,,2013-04-25 02:02:00,
2013-04-24 20:11:00,49.0,18.0,-100.00,West,270,11.0,12.0,29,-99.99,,,0.00,,2013-04-25 02:11:00,
2013-04-24 20:22:00,49.0,18.0,-100.00,West,270,11.0,12.0,29,-99.99,,,0.00,,2013-04-25 02:22:00,
2013-04-24 21:02:00,46.0,17.0,-100.00,WSW,255,6.0,7.0,31,-99.99,,,0.00,,2013-04-25 03:02:00,
2013-04-24 21:11:00,46.0,17.0,-100.00,WSW,255,6.0,7.0,31,-99.99,,,0.00,,2013-04-25 03:11:00,
2013-04-24 21:22:00,46.0,17.0,-100.00,WSW,255,6.0,7.0,31,-99.99,,,0.00,,2013-04-25 03:22:00,
2013-04-24 21:52:00,46.0,18.0,-100.00,WSW,255,11.0,12.0,32,-99.99,,,0.00,,2013-04-25 03:52:00,
2013-04-24 22:03:00,46.0,18.0,-100.00,WSW,255,11.0,12.0,32,-99.99,,,0.00,,2013-04-25 04:03:00,
2013-04-24 22:12:00,46.0,18.0,-100.00,WSW,255,11.0,12.0,32,-99.99,,,0.00,,2013-04-25 04:12:00,
2013-04-24 22:22:00,46.0,18.0,-100.00,WSW,255,11.0,12.0,32,-99.99,,,0.00,,2013-04-25 04:22:00,
2013-04-24 22:52:00,48.0,18.0,-100.00,WSW,245,9.0,10.0,30,-99.99,,,0.00,,2013-04-25 04:52:00,
2013-04-24 23:02:00,48.0,18.0,-100.00,WSW,245,9.0,10.0,30,-99.99,,,0.00,,2013-04-25 05:02:00,
2013-04-24 23:12:00,48.0,18.0,-100.00,WSW,245,9.0,10.0,30,-99.99,,,0.00,,2013-04-25 05:12:00,
2013-04-24 23:21:00,48.0,18.0,-100.00,WSW,245,9.0,10.0,30,-99.99,,,0.00,,2013-04-25 05:21:00,
2013-04-24 23:52:00,46.0,17.0,-100.00,West,260,15.0,16.0,31,-99.99,,,0.00,,2013-04-25 05:52:00,